Stündliche Wetter Labno-Ogorodniki

Heute, 18 Mai, Dienstag

Zeit Temperatur Niederschläge Wind Luftdruck Luftfeuchtigkeit
00:00 +12°C° 0 mm 2 m/S 736 mmHg 92%
01:00 +12°C° 0 mm 2 m/S 736 mmHg 94%
02:00 +12°C° 0 mm 2 m/S 736 mmHg 95%
03:00 +12°C° 0 mm 2 m/S 736 mmHg 96%
04:00 +12°C° 0 mm 2 m/S 736 mmHg 96%
05:00 +10°C° 0 mm 2 m/S 736 mmHg 97%
06:00 +12°C° 0 mm 3 m/S 736 mmHg 91%
07:00 +13°C° 0 mm 3 m/S 736 mmHg 86%
08:00 +14°C° 0 mm 3 m/S 736 mmHg 80%
09:00 +16°C° 0 mm 3 m/S 736 mmHg 75%
10:00 +17°C° 0 mm 4 m/S 736 mmHg 70%
11:00 +18°C° 0 mm 4 m/S 736 mmHg 65%
12:00 +18°C° 0.1 mm 4 m/S 736 mmHg 64%
13:00 +18°C° 0.1 mm 4 m/S 736 mmHg 62%
14:00 +19°C° 0.1 mm 5 m/S 736 mmHg 61%
15:00 +18°C° 0 mm 4 m/S 736 mmHg 61%
16:00 +18°C° 0 mm 4 m/S 736 mmHg 62%
17:00 +18°C° 0 mm 4 m/S 736 mmHg 63%
18:00 +15°C° 0 mm 4 m/S 736 mmHg 69%
19:00 +14°C° 0 mm 3 m/S 736 mmHg 76%
20:00 +12°C° 0 mm 3 m/S 737 mmHg 82%
21:00 +11°C° 0 mm 3 m/S 737 mmHg 85%
22:00 +10°C° 0 mm 2 m/S 737 mmHg 88%
23:00 +9°C° 0 mm 2 m/S 737 mmHg 92%

Morgen, 19 Mai, Mittwoch

Zeit Temperatur Niederschläge Wind Luftdruck Luftfeuchtigkeit
00:00 +8°C° 0 mm 2 m/S 737 mmHg 92%
01:00 +8°C° 0 mm 3 m/S 737 mmHg 92%
02:00 +8°C° 0 mm 3 m/S 737 mmHg 92%
03:00 +8°C° 0 mm 3 m/S 737 mmHg 92%
04:00 +8°C° 0 mm 3 m/S 737 mmHg 92%
05:00 +8°C° 0 mm 3 m/S 737 mmHg 93%
06:00 +8°C° 0 mm 4 m/S 737 mmHg 87%
07:00 +10°C° 0 mm 4 m/S 738 mmHg 81%
08:00 +12°C° 0 mm 5 m/S 738 mmHg 75%
09:00 +13°C° 0 mm 5 m/S 738 mmHg 69%
10:00 +14°C° 0 mm 6 m/S 738 mmHg 64%
11:00 +15°C° 0 mm 6 m/S 738 mmHg 58%
12:00 +15°C° 0.1 mm 6 m/S 739 mmHg 60%
13:00 +15°C° 0.1 mm 6 m/S 739 mmHg 62%
14:00 +15°C° 0.1 mm 6 m/S 739 mmHg 64%
15:00 +14°C° 0.2 mm 5 m/S 739 mmHg 69%
16:00 +14°C° 0.2 mm 5 m/S 739 mmHg 73%
17:00 +13°C° 0.2 mm 5 m/S 739 mmHg 78%
18:00 +12°C° 0 mm 5 m/S 740 mmHg 79%
19:00 +12°C° 0 mm 4 m/S 740 mmHg 81%
20:00 +11°C° 0 mm 4 m/S 740 mmHg 82%
21:00 +10°C° 0 mm 4 m/S 741 mmHg 86%
22:00 +9°C° 0 mm 3 m/S 741 mmHg 90%
23:00 +8°C° 0 mm 3 m/S 741 mmHg 95%

übermorgen, 20 Mai, Donnerstag

Zeit Temperatur Niederschläge Wind Luftdruck Luftfeuchtigkeit
00:00 +7°C° 0 mm 3 m/S 741 mmHg 96%
01:00 +7°C° 0 mm 3 m/S 741 mmHg 96%
02:00 +5°C° 0 mm 3 m/S 741 mmHg 97%
03:00 +7°C° 0 mm 3 m/S 742 mmHg 95%
04:00 +7°C° 0 mm 3 m/S 742 mmHg 93%
05:00 +8°C° 0 mm 3 m/S 742 mmHg 91%
06:00 +9°C° 0 mm 3 m/S 742 mmHg 84%
07:00 +10°C° 0 mm 3 m/S 742 mmHg 77%
08:00 +11°C° 0 mm 4 m/S 742 mmHg 71%
09:00 +13°C° 0 mm 4 m/S 742 mmHg 65%
10:00 +14°C° 0 mm 4 m/S 742 mmHg 60%
11:00 +17°C° 0 mm 4 m/S 742 mmHg 54%
12:00 +16°C° 0 mm 5 m/S 742 mmHg 52%
13:00 +17°C° 0 mm 5 m/S 742 mmHg 51%
14:00 +17°C° 0 mm 5 m/S 742 mmHg 49%
15:00 +16°C° 0 mm 5 m/S 742 mmHg 52%
16:00 +16°C° 0 mm 5 m/S 743 mmHg 56%
17:00 +15°C° 0 mm 6 m/S 743 mmHg 59%
18:00 +14°C° 0 mm 5 m/S 743 mmHg 64%
19:00 +12°C° 0 mm 5 m/S 744 mmHg 69%
20:00 +11°C° 0 mm 4 m/S 744 mmHg 74%
21:00 +8°C° 0 mm 4 m/S 744 mmHg 79%
22:00 +8°C° 0 mm 3 m/S 744 mmHg 85%
23:00 +7°C° 0 mm 3 m/S 745 mmHg 90%

21 Mai, Freitag

Zeit Temperatur Niederschläge Wind Luftdruck Luftfeuchtigkeit
00:00 +5°C° 0 mm 3 m/S 745 mmHg 91%
01:00 +5°C° 0 mm 2 m/S 745 mmHg 92%
02:00 +5°C° 0 mm 2 m/S 745 mmHg 93%
03:00 +4°C° 0 mm 2 m/S 746 mmHg 92%
04:00 +4°C° 0 mm 2 m/S 746 mmHg 92%
05:00 +4°C° 0 mm 2 m/S 746 mmHg 91%
06:00 +5°C° 0 mm 3 m/S 746 mmHg 82%
07:00 +8°C° 0 mm 3 m/S 746 mmHg 74%
08:00 +10°C° 0 mm 4 m/S 746 mmHg 65%
09:00 +11°C° 0 mm 4 m/S 746 mmHg 61%
10:00 +12°C° 0 mm 4 m/S 746 mmHg 56%
11:00 +14°C° 0 mm 4 m/S 746 mmHg 52%
12:00 +14°C° 0 mm 4 m/S 746 mmHg 50%
13:00 +15°C° 0 mm 4 m/S 746 mmHg 48%
14:00 +17°C° 0 mm 4 m/S 746 mmHg 46%
15:00 +17°C° 0 mm 3 m/S 746 mmHg 48%
16:00 +16°C° 0 mm 3 m/S 745 mmHg 51%
17:00 +16°C° 0 mm 3 m/S 745 mmHg 53%
18:00 +14°C° 0 mm 3 m/S 745 mmHg 59%
19:00 +13°C° 0 mm 3 m/S 745 mmHg 65%
20:00 +12°C° 0 mm 2 m/S 745 mmHg 71%
21:00 +11°C° 0 mm 3 m/S 745 mmHg 71%
22:00 +10°C° 0 mm 3 m/S 744 mmHg 71%
23:00 +9°C° 0 mm 3 m/S 744 mmHg 71%

22 Mai, Samstag

Zeit Temperatur Niederschläge Wind Luftdruck Luftfeuchtigkeit
00:00 +10°C° 0 mm 3 m/S 744 mmHg 70%
01:00 +10°C° 0 mm 4 m/S 744 mmHg 68%
02:00 +10°C° 0 mm 4 m/S 743 mmHg 66%
03:00 +10°C° 0 mm 4 m/S 743 mmHg 69%
04:00 +9°C° 0 mm 5 m/S 743 mmHg 71%
05:00 +9°C° 0 mm 5 m/S 742 mmHg 74%
06:00 +10°C° 0 mm 5 m/S 742 mmHg 73%
07:00 +12°C° 0 mm 5 m/S 742 mmHg 72%
08:00 +13°C° 0 mm 6 m/S 742 mmHg 71%
09:00 +14°C° 0 mm 6 m/S 742 mmHg 65%
10:00 +16°C° 0 mm 6 m/S 742 mmHg 59%
11:00 +18°C° 0 mm 7 m/S 742 mmHg 54%
12:00 +18°C° 0 mm 7 m/S 741 mmHg 52%
13:00 +20°C° 0 mm 7 m/S 741 mmHg 50%
14:00 +21°C° 0 mm 7 m/S 741 mmHg 48%
15:00 +20°C° 0 mm 6 m/S 740 mmHg 52%
16:00 +20°C° 0 mm 6 m/S 740 mmHg 56%
17:00 +19°C° 0 mm 6 m/S 739 mmHg 60%
18:00 +17°C° 0 mm 6 m/S 739 mmHg 63%
19:00 +16°C° 0 mm 6 m/S 738 mmHg 66%
20:00 +15°C° 0 mm 6 m/S 738 mmHg 68%
21:00 +14°C° 1 mm 5 m/S 738 mmHg 77%
22:00 +13°C° 1 mm 5 m/S 738 mmHg 86%
23:00 +12°C° 1 mm 4 m/S 738 mmHg 95%

23 Mai, Sonntag

Zeit Temperatur Niederschläge Wind Luftdruck Luftfeuchtigkeit
00:00 +12°C° 1 mm 4 m/S 738 mmHg 95%
01:00 +12°C° 1 mm 4 m/S 738 mmHg 94%
02:00 +12°C° 1 mm 4 m/S 738 mmHg 94%
03:00 +11°C° 0 mm 4 m/S 738 mmHg 94%
04:00 +9°C° 0 mm 5 m/S 739 mmHg 94%
05:00 +9°C° 0 mm 5 m/S 739 mmHg 94%
06:00 +10°C° 0 mm 5 m/S 739 mmHg 89%
07:00 +10°C° 0 mm 5 m/S 740 mmHg 84%
08:00 +12°C° 0 mm 5 m/S 740 mmHg 79%
09:00 +13°C° 0.1 mm 5 m/S 740 mmHg 74%
10:00 +14°C° 0.1 mm 6 m/S 741 mmHg 68%
11:00 +15°C° 0.1 mm 6 m/S 741 mmHg 63%
12:00 +15°C° 0.2 mm 6 m/S 741 mmHg 64%
13:00 +15°C° 0.2 mm 6 m/S 741 mmHg 65%
14:00 +15°C° 0.2 mm 6 m/S 741 mmHg 66%
15:00 +14°C° 0.3 mm 5 m/S 742 mmHg 69%
16:00 +14°C° 0.3 mm 5 m/S 742 mmHg 71%
17:00 +14°C° 0.3 mm 5 m/S 742 mmHg 74%
18:00 +13°C° 0.3 mm 4 m/S 742 mmHg 79%
19:00 +12°C° 0.3 mm 3 m/S 742 mmHg 83%
20:00 +11°C° 0.3 mm 3 m/S 743 mmHg 88%
21:00 +10°C° 0 mm 3 m/S 743 mmHg 90%
22:00 +9°C° 0 mm 3 m/S 743 mmHg 92%
23:00 +8°C° 0 mm 3 m/S 743 mmHg 93%
Mehr zeigen

Wir brauchen deine Erlaubnis

Meteoprog und unser Service Anbieter werden persönliche Daten aufbewahren, so wie Cookies, Geräte Bezeichnung oder ähnliche Technologien von deinem Gerät und Prozess, so wie Persönliche Daten Inhalte und Werbungen, genauso wie social Media und den Verkehr zu analysieren.

  • Aufbewahrung und/oder Zugang zu deiner Geräte Informationen.

    Cookies, Geräte Bezeichnung oder andere Informationen, können aufbewahrt oder Zugang zu deinem Gerät erhalten, für den Grund, der oben angegeben wird.

  • Personalisierte Werbung und Inhalte, Messungen, Einblick in das Publikum und Produkt Entwicklung.

    Werbungen und Inhalte können personalisiert werden, basierend auf ein Profil. Mehr Daten können besser personalisierte Werbungen und Inhalte hinzufügen. Werbung und Inhalte können gezeigt und gemessen werden. Einblicke über das Publikum, welche die Werbung gesehen haben und den Inhalt, können abgeleitet werden. So wie Daten können genutzt werden, um es zu verbessern oder die Benutzer Erfahrung zu verbessern das System und die Software.

Wenn du “Ich stimme zu” klickst, erlaubst du uns, die Cookies zu benutzen die Geräte Bezeichnung, den Web oder ähnliche Technologien zu benutzen. Deine Settings, können in deinem Gerät bei deinem Browser geändert werden.

Für den bestimmten Zweck, berechtigten Interessen beruhen darauf, mehr als auf den Inhalt. Du kannst mehr darüber in unseren Privaten und Cookie Politik lesen.